Tracking 28096 objects as of 29-Sep-2023
HD Live streaming from Space Station
objects crossing your sky now

CZ-4 R/B

Track CZ-4 R/B now!
10-day predictions
CZ-4 R/B is classified as:


NORAD ID: 29507
Int'l Code: 2006-046C
Perigee: 528.2 km
Apogee: 590.0 km
Inclination: 97.7 °
Period: 95.7 minutes
Semi major axis: 6930 km
RCS: 4.43 m2 (large)
Launch date: October 23, 2006
Source: People's Republic of China (PRC)
Launch site: Taiyaun Space Center, China (TSC)

Note: This is a ROCKET BODY
Your satellite tracking list
Your tracking list is empty




NASA's NSSDC Master Catalog

Two Line Element Set (TLE):
1 29507U 06046C   23271.87332926  .00003805  00000-0  26791-3 0  9998
2 29507  97.6794 304.5119 0044570  89.6770 270.9563 15.04842549925232
Source of the keplerian elements: AFSPC